Weather History for VOTR - March, 2012

Change the Weather History Date:

Thursday, March 15, 2012

  Actual Average Record
Temperature  
Mean Temperature 88 °F -  
Max Temperature 98 °F 93 °F 100 °F (2004)
Min Temperature 77 °F 78 °F 68 °F (2014)
Cooling Degree Days 22    
Growing Degree Days 38 (Base 50)    
Moisture  
Dew Point 72 °F    
Average Humidity 64    
Maximum Humidity 89    
Minimum Humidity 29    
Precipitation  
Precipitation 0.00 in - - ()
Sea Level Pressure  
Sea Level Pressure 29.88 in    
Wind  
Wind Speed 5 mph ()    
Max Wind Speed 13 mph    
Max Gust Speed -    
Visibility 3.7 miles    
Events      
Averages and records for this station are not official NWS values.
T = Trace of Precipitation, MM = Missing Value Source: Averaged Metar Reports

Daily Weather History Graph

Daily Weather History Graph

Search for Another Location

Airport or City:

Trip Planner

Search our weather history database for the weather conditions in past years. The results will help you decide how hot, cold, wet, or windy it might be!

Date:

Astronomy

Mar. 15, 2012 Rise Set
Actual Time 6:22 AM IST 6:25 PM IST
Civil Twilight 6:01 AM IST 6:46 PM IST
Nautical Twilight 5:36 AM IST 7:11 PM IST
Astronomical Twilight 5:12 AM IST 7:35 PM IST
Moon No Moon Rise 12:14 PM IST (3/15)
Length of Visible Light 12h 45m
Length of Day
12h 03m
Waning Gibbous, 48% of the Moon is Illuminated
Mar 15
Waning Gibbous
Mar 22
New
Mar 31
First Quarter
Apr 7
Full
Apr 13
Last Quarter

Hourly Weather History & Observations

Time (IST) Temp. Heat Index Dew Point Humidity Pressure Visibility Wind Dir Wind Speed Gust Speed Precip Events Conditions
12:10 AM 80.6 °F 85.4 °F 73.4 °F 79% 29.92 in 3.7 mi NE 2.3 mph - N/A   Partly Cloudy
12:40 AM 78.8 °F - 73.4 °F 83% 29.92 in 3.7 mi ENE 4.6 mph - N/A   Partly Cloudy
1:10 AM 78.8 °F - 73.4 °F 83% 29.92 in 3.7 mi ENE 4.6 mph - N/A   Partly Cloudy
1:40 AM 77.0 °F - 71.6 °F 83% 29.86 in - East 8.1 mph - N/A   Partly Cloudy
2:30 AM 78 °F - 72 °F 77% 29.87 in 2 mi ENE 2.3 mph - -   Haze
2:40 AM 77.0 °F - 73.4 °F 89% 29.89 in 3.7 mi ENE 2.3 mph - N/A   Partly Cloudy
3:10 AM 77.0 °F - 73.4 °F 89% 29.89 in 3.7 mi NNE 2.3 mph - N/A   Partly Cloudy
3:40 AM 77.0 °F - 73.4 °F 89% 29.89 in 3.7 mi NNE 2.3 mph - N/A   Partly Cloudy
5:10 AM 77.0 °F - 71.6 °F 83% 29.86 in 3.1 mi NNE 3.5 mph - N/A   Haze
5:30 AM 78 °F - 74 °F 84% 29.87 in 2 mi NE 2.3 mph - -   Haze
5:40 AM 77.0 °F - 73.4 °F 89% 29.86 in 3.1 mi NE 2.3 mph - N/A   Haze
6:10 AM 78.8 °F - 73.4 °F 83% 29.86 in 3.1 mi ENE 3.5 mph - N/A   Haze
6:40 AM 78.8 °F - 73.4 °F 83% 29.86 in 3.1 mi NE 2.3 mph - N/A   Haze
7:10 AM 78.8 °F - 73.4 °F 83% 29.89 in 3.1 mi NNE 4.6 mph - N/A   Haze
7:40 AM 80.6 °F 85.4 °F 73.4 °F 79% 29.92 in 3.1 mi NE 3.5 mph - N/A   Haze
8:10 AM 82.4 °F 88.2 °F 73.4 °F 74% 29.95 in 3.1 mi ENE 3.5 mph - N/A   Haze
8:30 AM 84 °F - 75 °F 69% 29.95 in 2 mi ESE 3.5 mph - -   Haze
8:40 AM 84.2 °F 92.3 °F 75.2 °F 74% 29.95 in 3.1 mi ESE 3.5 mph - N/A   Haze
9:10 AM 86.0 °F 93.4 °F 73.4 °F 66% 29.95 in 3.1 mi ESE 2.3 mph - N/A   Haze
9:40 AM 87.8 °F 97.6 °F 75.2 °F 66% 29.95 in 3.7 mi SE 3.5 mph - N/A   Scattered Clouds
10:10 AM 89.6 °F 98.2 °F 73.4 °F 59% 29.95 in 3.7 mi SE 6.9 mph - N/A   Scattered Clouds
10:40 AM 91.4 °F 100.1 °F 73.4 °F 55% 29.95 in 3.7 mi East 5.8 mph - N/A   Scattered Clouds
11:10 AM 93.2 °F 102.4 °F 73.4 °F 52% 29.95 in 3.7 mi SE 4.6 mph - N/A   Scattered Clouds
11:30 AM 93 °F - 70 °F 38% 29.93 in 2 mi East 5.8 mph - -   Haze
11:40 AM 93.2 °F 100.5 °F 71.6 °F 49% 29.95 in 3.7 mi East 6.9 mph - N/A   Scattered Clouds
12:10 PM 95.0 °F 103.2 °F 71.6 °F 47% 29.92 in 3.7 mi ESE 5.8 mph - N/A   Scattered Clouds
12:40 PM 96.8 °F 105.1 °F 71.6 °F 44% 29.89 in 4.3 mi ENE 9.2 mph - N/A   Scattered Clouds
1:10 PM 96.8 °F 105.1 °F 71.6 °F 44% 29.89 in 5.0 mi East 10.4 mph - N/A   Scattered Clouds
1:40 PM 96.8 °F 105.1 °F 71.6 °F 44% 29.86 in 5.0 mi East 9.2 mph - N/A   Scattered Clouds
2:10 PM 96.8 °F 103.1 °F 69.8 °F 41% 29.83 in 5.0 mi ENE 6.9 mph - N/A   Scattered Clouds
2:30 PM 97 °F - 68 °F 29% 29.83 in 6 mi East 5.8 mph - -   Partly Cloudy
2:40 PM 96.8 °F 103.1 °F 69.8 °F 41% 29.83 in 6.2 mi East 5.8 mph - N/A   Scattered Clouds
3:10 PM 96.8 °F 103.1 °F 69.8 °F 41% 29.80 in 6.2 mi East 5.8 mph - N/A   Scattered Clouds
3:40 PM 96.8 °F 101.8 °F 68.0 °F 39% 29.80 in 6.2 mi ENE 5.8 mph - N/A   Scattered Clouds
4:10 PM 96.8 °F 101.8 °F 68.0 °F 39% 29.80 in 6.2 mi ESE 11.5 mph - N/A   Scattered Clouds
4:40 PM 96.8 °F 103.1 °F 69.8 °F 41% 29.80 in 6.2 mi ENE 9.2 mph - N/A   Partly Cloudy
5:10 PM 95.0 °F 103.2 °F 71.6 °F 47% 29.80 in 3.7 mi NE 9.2 mph - N/A   Partly Cloudy
5:30 PM 91 °F - 70 °F 41% 29.80 in 2 mi ESE 9.2 mph - -   Haze
5:40 PM 91.4 °F 98.4 °F 71.6 °F 52% 29.80 in 3.7 mi ESE 9.2 mph - N/A   Partly Cloudy
6:10 PM 91.4 °F 98.4 °F 71.6 °F 52% 29.80 in 3.7 mi ESE 8.1 mph - N/A   Partly Cloudy
6:40 PM 89.6 °F 96.2 °F 71.6 °F 55% 29.83 in 3.7 mi SE 11.5 mph - N/A   Scattered Clouds
7:10 PM 87.8 °F 95.6 °F 73.4 °F 62% 29.83 in 3.7 mi ESE 12.7 mph - N/A   Scattered Clouds
7:40 PM 86.0 °F 93.4 °F 73.4 °F 66% 29.86 in 3.7 mi SSE 9.2 mph - N/A   Scattered Clouds
8:10 PM 86.0 °F 93.4 °F 73.4 °F 66% 29.86 in 3.7 mi SE 9.2 mph - N/A   Scattered Clouds
8:30 PM 85 °F - 72 °F 57% 29.88 in 2 mi ESE 10.4 mph - -   Haze
8:40 PM 84.2 °F 90.9 °F 73.4 °F 70% 29.89 in 3.7 mi ESE 9.2 mph - N/A   Scattered Clouds
9:10 PM 84.2 °F 90.9 °F 73.4 °F 70% 29.89 in 3.7 mi ESE 8.1 mph - N/A   Scattered Clouds
9:40 PM 84.2 °F 90.9 °F 73.4 °F 70% 29.92 in 3.7 mi ESE 10.4 mph - N/A   Scattered Clouds
10:10 PM 82.4 °F 88.2 °F 73.4 °F 74% 29.92 in 3.7 mi ESE 5.8 mph - N/A   Scattered Clouds
10:40 PM 82.4 °F 88.2 °F 73.4 °F 74% 29.92 in 3.7 mi ESE 6.9 mph - N/A   Scattered Clouds
11:10 PM 80.6 °F 85.4 °F 73.4 °F 79% 29.92 in 3.7 mi East 3.5 mph - N/A   Scattered Clouds
11:30 PM 80 °F - 74 °F 77% 29.92 in 2 mi ENE 2.3 mph - -   Haze
11:40 PM 80.6 °F 86.2 °F 75.2 °F 84% 29.92 in 3.7 mi ENE 3.5 mph - N/A   Scattered Clouds